Lid_Strength_Index
12 11 11 12 12 12 13 12 15 13 12 10 9 8 8 8 7 7 6 6 6 6 6 6 4 4 3 3 2 2 2 3 3 2 2 2 2 2 2 1 1 1 1 1
14 11 11 13 11 11 11 11 12 11 12 8 7 7 8 7 8 8 7 7 6 5 5 5 4 4 3 3 3 3 2 3 2 2 2 3 2 2 2 2 2 2 2 2
16 12 13 16 13 11 11 10 11 14 10 9 9 8 8 8 8 7 6 6 5 5 5 5 4 4 4 4 3 4 3 2 3 2 2 2 2 2 2 2 2 2 2 2
16 15 20 12 9 9 10 9 9 9 10 9 8 8 7 6 7 6 6 6 6 5 5 4 4 4 4 4 3 4 3 3 2 2 3 3 2 3 2 2 2 2 2 3
19 18 14 12 10 11 13 13 9 10 9 8 7 8 8 6 5 5 5 5 4 4 4 4 5 4 4 4 4 4 3 3 2 2 3 3 4 3 2 2 2 2 2 3
15 19 21 13 10 8 8 16 8 8 9 9 8 12 10 5 5 5 5 4 4 4 4 5 5 4 4 4 4 4 3 3 2 2 2 4 5 3 2 2 2 2 3 3
16 17 15 9 7 7 16 14 8 8 8 8 10 8 6 5 5 5 5 4 4 5 5 5 5 5 5 4 4 4 3 2 2 2 2 3 4 2 2 2 2 3 4 5
15 17 19 8 8 12 10 8 7 7 7 8 7 6 6 5 5 5 5 4 4 5 5 5 5 5 5 5 4 4 3 3 2 2 2 3 3 2 2 3 3 3 4 6
13 15 10 9 8 7 8 8 7 7 6 6 7 6 6 6 5 5 5 4 5 6 5 5 5 5 5 5 4 4 4 3 3 2 2 2 3 3 3 3 3 4 5 6
13 12 10 9 8 7 6 6 6 6 6 6 6 6 6 5 5 5 5 6 6 6 7 7 5 5 5 5 5 5 5 3 3 3 3 3 2 3 3 3 4 4 5 6
11 10 9 8 7 6 6 5 5 5 5 5 5 6 6 6 6 6 6 6 6 6 7 7 6 6 6 6 5 5 4 4 3 3 3 3 3 3 3 2 4 4 5 6
12 9 9 8 7 6 6 7 6 7 8 7 7 8 7 8 8 8 9 8 9 8 8 8 7 7 6 5 4 4 4 4 3 3 3 3 3 5 10 8 9 9 9 6
8 7 8 7 6 6 7 8 8 8 9 10 9 8 9 10 10 10 10 10 9 9 9 8 7 7 6 5 4 4 4 4 3 4 3 4 4 4 8 10 11 11 11 11
6 6 8 7 8 7 8 9 9 9 10 10 11 11 12 12 11 11 11 10 10 10 9 8 7 6 6 5 5 4 3 6 3 3 3 3 3 5 6 6 7 9 12 12
7 7 7 7 8 9 9 9 10 11 10 11 12 12 12 13 13 13 12 10 9 9 7 6 4 4 5 5 4 3 3 3 3 3 4 4 4 5 5 6 9 10 12 13
8 7 8 10 10 10 10 10 11 11 12 13 14 14 14 14 14 12 11 10 10 10 7 7 6 5 3 4 3 3 3 6 6 4 4 4 5 6 6 8 9 10 11 12
9 9 10 10 10 10 10 10 12 13 14 14 14 15 15 14 13 12 12 11 10 10 8 8 8 7 3 3 3 3 4 5 8 4 4 4 4 6 7 8 10 10 10 11
8 9 10 9 10 10 11 12 13 14 15 15 15 15 14 14 15 13 13 11 11 11 10 10 9 7 3 4 4 4 4 4 4 4 4 4 5 5 7 8 9 9 10 12
9 10 9 9 10 10 12 13 14 14 15 15 15 15 14 14 14 13 13 12 13 13 12 10 10 7 5 6 5 4 5 5 5 5 4 9 7 6 6 8 9 10 11 11
9 8 8 9 9 11 13 13 13 15 14 14 14 14 14 14 14 13 13 13 13 13 12 11 10 8 6 6 7 5 5 5 5 6 6 7 7 8 9 11 10 10 10 10
9 9 10 9 11 11 12 12 13 14 14 13 14 14 14 14 13 13 13 14 13 12 12 11 11 10 7 6 6 5 5 6 6 6 7 7 9 9 9 9 9 9 10 10
9 9 9 10 12 12 11 11 12 13 13 13 13 14 14 14 14 13 13 14 13 14 12 11 11 14 10 10 5 6 6 6 6 7 7 8 8 9 9 9 9 9 9 9
8 8 8 10 11 11 11 11 11 12 13 13 14 14 14 15 15 15 15 13 13 13 12 12 14 14 13 7 6 6 6 7 7 7 8 8 8 9 9 8 9 9 10 9
6 7 7 7 9 10 12 11 12 12 12 12 13 13 14 14 14 13 13 13 14 13 12 14 14 14 12 8 7 6 7 7 8 8 9 11 8 8 8 9 9 8 8 9
7 7 6 7 8 9 9 10 11 12 12 12 12 12 12 12 14 14 12 12 13 13 12 14 14 13 10 10 9 8 7 7 8 8 8 8 9 9 9 9 10 8 8 9
8 8 8 8 9 9 9 9 10 11 12 12 11 11 11 11 12 12 12 13 12 13 12 13 13 12 12 12 10 9 9 9 8 8 8 8 7 8 9 9 8 9 9 9
7 8 9 9 9 9 9 10 10 10 10 11 11 9 10 10 11 11 12 12 12 12 13 13 13 13 13 13 12 11 10 10 11 10 9 10 10 9 9 8 9 9 9 10